Find Starlink 35496

NORAD ID: 66114 Int'l Des: 2025-237 Owner: SPXS Country: US Constellation: starlink operational
LEOCIRCULAR

リアルタイム位置

3D地球を読み込み中...

Starlink 35496について

説明を読み込み中...

次回通過

Passes for default location (London). Set your location on the main map for personalized predictions.

高度履歴

Loading altitude history...

軌道要素

1 66114U 25237A 26106.59115053 .00010745 00000-0 37435-3 0 9993
2 66114 53.1598 223.5595 0001196 90.9597 269.1541 15.30201266 28417
Epoch: Apr 16, 2026 • Age: 27 hours

現在のステータス

高度 480.8 km
速度 7.63 km/s
衛星直下点 53.08°N, 163.14°W
打ち上げ日 Oct 22, 2025
運用期間 0.4 years
タイプ internet

技術仕様

分類 Payload
質量 575.00 kg
乾燥質量 530.00 kg
総質量 575.00 kg
長さ 0.30 m
直径 4.10 m
スパン 29.00 m
形状 Box + pan
製造者 SPXS
バスタイプ Starlink V2MO
フェーズステータス In Orbit
所有者/国 SPXS/US

Most Searched